FW3111 Weather Reports


Display with metric or nautical units.
time (UTC)temp
F
wind
direction
speed
MPH
gust
MPH
rain 1hr
in
rain 24hr
in
rain mn
in
humidity
%
barometer
mb
20260504081529 60 57 2.0 11.0 0.00 0.36 0.00 100 1014.7
20260504081031 60 30 4.0 10.0 0.00 0.36 0.00 100 1014.8
20260504080526 60 67 2.0 12.0 0.00 0.36 0.00 100 1014.8
20260504050506 60 360 5.0 14.0 0.00 0.36 0.00 100 1016.8
20260504050002 60 43 6.0 13.0 0.00 0.36 0.36 100 1016.9
20260504045502 59 61 6.0 13.0 0.00 0.36 0.36 100 1017.1
20260504045002 59 64 7.0 18.0 0.00 0.36 0.36 100 1017.1
20260504044502 59 50 5.0 18.0 0.00 0.36 0.36 100 1017.1
20260504044003 59 86 6.0 16.0 0.00 0.36 0.36 100 1017.1
20260504043502 59 58 7.0 13.0 0.00 0.36 0.36 100 1017.0
20260504043002 59 96 5.0 12.0 0.00 0.36 0.36 100 1016.8
20260504042559 59 87 6.0 14.0 0.00 0.36 0.36 100 1016.8
20260504042059 59 111 5.0 14.0 0.00 0.36 0.36 100 1016.8
20260504041600 59 67 4.0 13.0 0.00 0.36 0.36 100 1016.7
20260504041059 59 105 4.0 13.0 0.00 0.36 0.36 100 1016.6
20260504040559 59 63 3.0 10.0 0.00 0.36 0.36 100 1016.6
20260504040105 59 52 2.0 9.0 0.00 0.36 0.36 100 1016.6
20260504035558 59 57 2.0 9.0 0.00 0.36 0.36 100 1016.8
20260504035101 59 76 1.0 6.0 0.00 0.36 0.36 100 1016.8
20260504034559 60 30 1.0 6.0 0.00 0.36 0.36 100 1016.7
20260504034058 60 36 2.0 6.0 0.00 0.36 0.36 100 1016.7
20260504033558 60 36 0.0 8.0 0.00 0.36 0.36 100 1016.5
20260504033058 60 355 1.0 8.0 0.00 0.36 0.36 100 1016.4
20260504032558 60 63 2.0 11.0 0.00 0.36 0.36 100 1016.3
20260504032101 60 66 1.0 11.0 0.00 0.36 0.36 100 1016.4
20260504031628 60 41 2.0 11.0 0.00 0.36 0.36 100 1016.5
20260504031057 60 19 2.0 11.0 0.00 0.36 0.36 100 1016.5
20260504030557 61 34 2.0 8.0 0.01 0.36 0.36 100 1016.6
20260504030057 61 59 1.0 13.0 0.02 0.36 0.36 100 1016.5
20260504025557 61 50 2.0 13.0 0.02 0.36 0.36 100 1016.4
20260504025057 61 28 3.0 10.0 0.03 0.36 0.36 100 1016.2
20260504024556 61 58 0.0 7.0 0.05 0.36 0.36 100 1016.1
20260504024056 60 90 3.0 8.0 0.14 0.36 0.36 100 1016.1
20260504023556 60 82 4.0 10.0 0.26 0.36 0.36 100 1016.2
20260504023058 60 83 3.0 10.0 0.31 0.36 0.36 100 1016.3
20260504022556 59 88 6.0 10.0 0.36 0.36 0.36 100 1016.4
20260504022055 59 84 5.0 10.0 0.36 0.36 0.36 100 1016.4
20260504021608 59 104 4.0 12.0 0.36 0.36 0.36 100 1016.4
20260504021057 59 72 5.0 16.0 0.36 0.36 0.36 100 1016.3
20260504020556 59 86 6.0 18.0 0.35 0.35 0.35 100 1016.1
20260504020100 58 92 12.0 18.0 0.35 0.35 0.35 100 1016.3
20260504015555 58 60 12.0 17.0 0.35 0.35 0.35 100 1016.3
20260504015054 59 105 11.0 17.0 0.33 0.33 0.33 100 1016.4
20260504014553 59 95 9.0 36.0 0.31 0.31 0.31 100 1016.6
20260504014050 60 89 17.0 47.0 0.21 0.21 0.21 100 1016.5
20260504013550 62 84 31.0 47.0 0.09 0.09 0.09 100 1015.4
20260504013514 63 64 28.0 47.0 0.09 0.09 0.09 100 1015.5
20260504013012 68 31 13.0 23.0 0.00 0.00 0.00 100 1015.8
20260504012549 68 9 5.0 13.0 0.00 0.00 0.00 100 1015.7
20260504012048 68 355 5.0 11.0 0.00 0.00 0.00 100 1015.5
20260504011550 69 61 3.0 10.0 0.00 0.00 0.00 100 1015.3
20260504011048 69 46 3.0 7.0 0.00 0.00 0.00 100 1015.3
20260504010547 69 12 3.0 7.0 0.00 0.00 0.00 100 1015.2
20260504010047 69 96 1.0 8.0 0.00 0.00 0.00 100 1015.1
20260504005547 69 292 3.0 11.0 0.00 0.00 0.00 100 1015.1
20260504005047 69 28 4.0 11.0 0.00 0.00 0.00 100 1015.0
20260504004547 70 56 3.0 9.0 0.00 0.00 0.00 100 1014.9
20260504004047 70 5 3.0 9.0 0.00 0.00 0.00 100 1014.7
20260504003546 70 38 3.0 10.0 0.00 0.00 0.00 100 1014.8
20260504003048 70 73 5.0 10.0 0.00 0.00 0.00 100 1014.6
20260504002546 70 46 4.0 10.0 0.00 0.00 0.00 100 1014.6
20260504002046 70 59 5.0 13.0 0.00 0.00 0.00 100 1014.5
20260504001604 70 65 5.0 13.0 0.00 0.00 0.00 100 1014.5
20260504001045 70 62 1.0 7.0 0.00 0.00 0.00 100 1014.4
20260504000545 71 329 3.0 12.0 0.00 0.00 0.00 100 1014.3
20260504000045 71 21 2.0 12.0 0.00 0.00 0.00 100 1014.1
20260503235545 71 59 4.0 11.0 0.00 0.00 0.00 100 1014.0
20260503235047 71 46 3.0 10.0 0.00 0.00 0.00 100 1013.8
20260503234545 71 83 4.0 11.0 0.00 0.00 0.00 100 1013.7
20260503234045 71 67 4.0 11.0 0.00 0.00 0.00 100 1013.5
20260503233544 71 71 3.0 7.0 0.00 0.00 0.00 100 1013.5
20260503233045 71 79 3.0 10.0 0.00 0.00 0.00 100 1013.2
20260503232544 71 86 3.0 7.0 0.00 0.00 0.00 100 1013.3
20260503232044 72 61 4.0 9.0 0.00 0.00 0.00 100 1013.2
20260503231550 72 28 4.0 9.0 0.00 0.00 0.00 100 1013.0
20260503231044 72 19 0.0 5.0 0.00 0.00 0.00 100 1013.1
20260503230548 72 63 1.0 6.0 0.00 0.00 0.00 100 1013.2
20260503230046 72 34 3.0 6.0 0.00 0.00 0.00 100 1013.1
20260503225543 72 50 2.0 6.0 0.00 0.05 0.00 100 1012.9
20260503225043 72 55 2.0 10.0 0.00 0.05 0.00 100 1012.8
20260503224548 72 43 4.0 10.0 0.00 0.05 0.00 100 1012.7
20260503224044 73 22 3.0 8.0 0.00 0.05 0.00 100 1012.8
20260503223544 73 59 2.0 9.0 0.00 0.05 0.00 100 1012.9
20260503223044 73 5 5.0 9.0 0.00 0.05 0.00 100 1013.0
20260503222541 73 52 2.0 6.0 0.00 0.05 0.00 100 1013.0
20260503222041 73 355 1.0 4.0 0.00 0.05 0.00 100 1013.0
20260503221542 73 5 1.0 6.0 0.00 0.05 0.00 100 1012.8
20260503221043 72 19 2.0 6.0 0.00 0.05 0.00 100 1012.8
20260503220541 72 57 1.0 5.0 0.00 0.05 0.00 100 1012.9
20260503220041 72 285 2.0 6.0 0.00 0.05 0.00 100 1012.9
20260503215540 72 318 2.0 5.0 0.00 0.10 0.00 100 1013.0
20260503215040 72 304 1.0 3.0 0.00 0.10 0.00 100 1013.0
20260503214548 71 302 1.0 4.0 0.00 0.10 0.00 100 1013.0
20260503214039 71 302 2.0 4.0 0.00 0.10 0.00 100 1013.1
20260503213539 71 46 1.0 6.0 0.00 0.10 0.00 100 1013.1
20260503213101 71 33 2.0 6.0 0.00 0.10 0.00 100 1013.2
20260503212538 70 59 2.0 6.0 0.00 0.10 0.00 100 1013.3
20260503212038 70 78 3.0 8.0 0.00 0.10 0.00 100 1013.3
20260503211557 70 100 5.0 8.0 0.00 0.10 0.00 100 1013.4
20260503211042 70 100 3.0 9.0 0.00 0.10 0.00 100 1013.3
20260503210538 70 100 6.0 12.0 0.00 0.10 0.00 100 1013.3
20260503210038 70 107 8.0 15.0 0.00 0.10 0.00 100 1013.3
20260503205538 71 114 9.0 15.0 0.00 0.10 0.00 100 1013.3
20260503205041 72 99 3.0 8.0 0.00 0.10 0.00 100 1013.4
20260503204552 72 73 2.0 8.0 0.00 0.10 0.00 100 1013.3
20260503204039 72 98 3.0 8.0 0.00 0.10 0.00 100 1013.1
20260503203538 72 69 3.0 6.0 0.00 0.10 0.00 100 1013.2
20260503203039 72 78 2.0 6.0 0.00 0.10 0.00 100 1013.3
20260503202535 72 80 2.0 9.0 0.00 0.10 0.00 100 1013.2
20260503202035 72 42 3.0 9.0 0.00 0.10 0.00 100 1013.3
20260503201536 72 51 4.0 9.0 0.00 0.10 0.00 100 1013.5
20260503201035 72 79 4.0 9.0 0.00 0.10 0.00 100 1013.7
20260503200534 72 46 4.0 17.0 0.00 0.10 0.00 100 1013.7
20260503200035 72 61 3.0 17.0 0.00 0.10 0.00 100 1013.6
20260503195534 72 91 3.0 9.0 0.00 0.10 0.00 100 1013.5
20260503195034 72 54 3.0 10.0 0.00 0.10 0.00 100 1013.4
20260503194534 72 355 3.0 10.0 0.00 0.10 0.00 100 1013.3
20260503194034 72 5 4.0 12.0 0.00 0.10 0.00 100 1013.5
20260503193534 72 57 7.0 14.0 0.00 0.10 0.00 100 1013.7
20260503193034 72 32 7.0 14.0 0.00 0.10 0.00 100 1013.7
20260503192534 72 360 6.0 12.0 0.00 0.10 0.00 100 1013.4
20260503192033 72 355 6.0 11.0 0.00 0.10 0.00 100 1013.4
20260503191544 72 28 4.0 10.0 0.00 0.10 0.00 100 1013.4
20260503191032 72 355 5.0 10.0 0.00 0.10 0.00 100 1013.8
20260503190531 72 306 4.0 16.0 0.00 0.10 0.00 100 1013.9
20260503190034 72 360 5.0 16.0 0.00 0.10 0.00 100 1013.9
20260503185534 73 14 5.0 15.0 0.00 0.10 0.00 100 1013.7
20260503185034 73 19 4.0 10.0 0.00 0.10 0.00 100 1013.9
20260503184534 73 59 5.0 11.0 0.00 0.10 0.00 100 1014.0
20260503184031 74 360 4.0 10.0 0.00 0.10 0.00 100 1013.9
20260503183529 74 62 3.0 14.0 0.00 0.10 0.00 100 1013.9
20260503183039 75 22 5.0 14.0 0.00 0.10 0.00 100 1014.1
20260503182529 76 346 5.0 14.0 0.00 0.10 0.00 100 1014.1
20260503182030 76 360 4.0 16.0 0.00 0.10 0.00 100 1014.3
20260503181529 77 69 8.0 18.0 0.00 0.10 0.00 100 1014.4
20260503181029 76 5 8.0 18.0 0.00 0.10 0.00 100 1014.1
20260503180528 75 332 5.0 16.0 0.00 0.10 0.00 100 1014.1
20260503180033 74 355 4.0 13.0 0.00 0.10 0.00 100 1014.4
20260503175527 74 70 6.0 17.0 0.00 0.10 0.00 100 1014.6
20260503175027 75 30 10.0 17.0 0.00 0.10 0.00 100 1014.5
20260503174537 76 64 9.0 15.0 0.00 0.10 0.00 100 1014.6
20260503174027 76 40 4.0 13.0 0.00 0.10 0.00 100 1014.8
20260503173527 77 28 5.0 15.0 0.00 0.10 0.00 100 1014.9
20260503173027 77 11 4.0 15.0 0.00 0.10 0.00 100 1014.9
20260503172525 77 271 5.0 12.0 0.00 0.10 0.00 100 1015.0
20260503172025 77 341 6.0 14.0 0.00 0.10 0.00 100 1014.9
20260503171529 78 315 4.0 14.0 0.00 0.10 0.00 100 1014.9
20260503171031 78 28 5.0 13.0 0.00 0.10 0.00 100 1014.8
20260503170525 77 42 4.0 15.0 0.00 0.10 0.00 100 1015.0
20260503170126 78 324 7.0 15.0 0.00 0.10 0.00 100 1015.1
20260503151012 75 355 3.0 7.0 0.00 0.10 0.00 100 1015.3
20260503150514 74 68 0.0 9.0 0.00 0.10 0.00 100 1015.2
20260503131049 65 57 2.0 5.0 0.00 0.10 0.00 100 1015.5
20260503130549 64 57 2.0 10.0 0.00 0.10 0.00 100 1015.5
20260503110535 62 63 2.0 12.0 0.00 0.10 0.00 100 1015.1